Tracking 29892 objects as of 21-Nov-2024
HD Live streaming from Space Station
objects crossing your sky now

SL-12 R/B(AUX MOTOR)

Track SL-12 R/B(AUX MOTOR) now!
10-day predictions


NORAD ID: 23402
Int'l Code: 1994-076G
Perigee: 511.7 km
Apogee: 18,827.2 km
Inclination: 65.0 °
Period: 337.0 minutes
Semi major axis: 16040 km
RCS: 0.7371 m2 (medium)
Launch date: November 20, 1994
Source: Commonwealth of Independent States (former USSR) (CIS)
Launch site: TYURATAM MISSILE AND SPACE COMPLEX (TTMTR)

Note: This is a ROCKET BODY
Your satellite tracking list
Your tracking list is empty




NASA's NSSDC Master Catalog

Two Line Element Set (TLE):
1 23402U 94076G   24325.84608329  .00000596  00000-0  13376-2 0  9995
2 23402  64.9952 145.8768 5709188 149.6023 261.8547  4.27345014465233
Source of the keplerian elements: AFSPC